Overview Statistics Trail Chart Weather Telemetry Raw packets
 

This is the latest recevied weather packets stored in our database for station/object KF0WJA. If no packets are shown the sender has not sent any weather packets the latest 10 day(s).

<< 28 29 30 31 32 33 34 >>
Time Temp. Humidity Pressure Rain* Wind** Luminosity Snow
1788468655 36.67° C 39% 1013.2 hPa 0 mm - 615 W/m² -
1788468351 36.67° C 40% 1013.3 hPa 0 mm - 630 W/m² -
1788468046 36.67° C 41% 1013.3 hPa 0 mm - 634 W/m² -
1788467742 36.11° C 40% 1013.2 hPa 0 mm - 633 W/m² -
1788467442 37.22° C 40% 1013.4 hPa 0 mm - 647 W/m² -
1788467138 36.67° C 39% 1013.4 hPa 0 mm - 642 W/m² -
1788466833 36.67° C 40% 1013.6 hPa 0 mm - 636 W/m² -
1788466527 36.67° C 39% 1013.5 hPa 0 mm - 638 W/m² -
1788466226 37.22° C 37% 1013.7 hPa 0 mm - 638 W/m² -
1788465921 36.11° C 40% 1013.7 hPa 0 mm - 614 W/m² -
1788465620 36.67° C 39% 1013.6 hPa 0 mm - 634 W/m² -
1788465313 36.11° C 40% 1013.4 hPa 0 mm - 647 W/m² -
1788465008 36.67° C 39% 1013.7 hPa 0 mm - 645 W/m² -
1788464703 36.67° C 40% 1013.7 hPa 0 mm - 645 W/m² -
1788464399 36.11° C 42% 1014.1 hPa 0 mm - 625 W/m² -
1788464095 36.11° C 41% 1013.9 hPa 0 mm - 627 W/m² -
1788463789 36.11° C 40% 1014.2 hPa 0 mm - 644 W/m² -
1788463487 36.67° C 40% 1014.3 hPa 0 mm - 668 W/m² -
1788463187 36.67° C 41% 1014.3 hPa 0 mm - 670 W/m² -
1788462883 36.67° C 41% 1014.2 hPa 0 mm - 674 W/m² -
1788462583 36.11° C 41% 1014.5 hPa 0 mm - 671 W/m² -
1788462277 35.56° C 43% 1014.3 hPa 0 mm - 660 W/m² -
1788461977 36.11° C 42% 1014.6 hPa 0 mm - 658 W/m² -
1788461673 35.56° C 43% 1014.7 hPa 0 mm - 667 W/m² -
1788461367 35.56° C 43% 1014.6 hPa 0 mm - 684 W/m² -

* Rain latest hour (hover to see other rain measurements)
** Current wind speed in m/s (hover to see current wind gust speed)